Strona główna
METAR-TAF:

METAR-TAF

Lotnisko :

Faith Municipal Airport

Faith, Dakota Południowa, Stany Zjednoczone

Szerokość geograficzna: 45-01-55N, Długość geograficzna: 102-01-09W, wysokość: 787 m

Aktualna obserwacja pogody

Raport powstał 1 godzina i 7 minut temu, godzina 04:56 UTC
Wiatr 6 kt od północ
Temperatura 21°C
Wilgotność 78%
Ciśnienie 1009 hPa

METAR: KD07 010456Z AUTO 36006KT 21/17 A2981 RMK AO1 SLP083 T02060172 $

czas: 00:03 (06:03 UTC)


TAF: brakujący

Obserwacja i prognoza pogody dla ponad 4000 lotnisk (raport METAR i TAF).

Dostępne stacje oznaczono żółtymi i czerwonymi punktami na mapie.

Najedź kursorem aby zobaczyć nazwę stacji.

Kliknij aby zobaczyć obserwacje i prognozy pogody.

Aby zmienić mapę: kliknij na zielony przycisk z czarnym krzyżykiem, aby powiększyć; na zielony przycisk z myślnikiem, aby pomniejszyć; na zielone strzałki, aby przejść do map sąsiednich.


METAR-TAF: